Location: Poughquag
(41.6090°N, 73.6820°W)
Time: 06:39:11
(UTC-05:00)

N. Korean satellite - Visible Passes

Search period start: 17 February 2019 00:00
Search period end: 27 February 2019 00:00
Orbit: 457 x 510 km, 97.2° (Epoch: 16 February)

Date Brightness Start Highest point End Pass type
(mag) Time Alt. Az. Time Alt. Az. Time Alt. Az.
17 Feb 8.8 05:35:26 10° NE 05:38:29 28° E 05:41:29 10° SSE visible
18 Feb 10.0 05:11:41 10° ENE 05:13:36 14° E 05:15:28 10° SE visible
19 Feb 10.4 18:30:12 10° WSW 18:31:42 12° W 18:33:12 10° WNW visible
20 Feb 7.4 05:54:21 10° NNE 05:57:45 52° E 06:01:06 10° S visible
20 Feb 9.5 18:03:48 10° SSW 18:06:48 24° W 18:09:47 10° NW visible
21 Feb 9.1 05:30:02 10° NE 05:32:54 24° E 05:35:45 10° SSE visible
22 Feb 10.1 05:06:36 10° ENE 05:07:59 12° E 05:09:22 10° ESE visible
23 Feb 10.2 18:24:11 10° SW 18:26:07 14° W 18:28:03 10° WNW visible
24 Feb 7.9 05:48:50 10° NNE 05:52:09 43° E 05:55:26 10° S visible
25 Feb 9.4 05:24:38 10° NE 05:27:17 21° E 05:29:56 10° SE visible
26 Feb 10.4 05:01:59 10° E 05:02:21 10° E 05:02:43 10° E visible
